<?xml version="1.0" encoding="UTF-8" standalone="no" ?>
<gpx xmlns="http://www.topografix.com/GPX/1/1" xmlns:xsi="http://www.w3.org/2001/XMLSchema-instance" xsi:schemaLocation="http://www.topografix.com/GPX/1/1 http://www.topografix.com/GPX/1/1/gpx.xsd" version="1.1" creator="VisuGPX - https://www.visugpx.com">
  <metadata>
    <name>LE TRUC ou LE PINET rando CAF DU 15/11/2018</name>
    <desc><![CDATA[Superbe journée sur les hauteurs de Chartreuse.]]></desc>
  </metadata>
  <trk>
    <name><![CDATA[Nouvelle trace 9]]></name>
    <trkseg>
      <trkpt lat="45.41254" lon="5.88657">
        <ele>1042.2568</ele>
        <time>2018-11-15 08:29:07,744</time>
      </trkpt>
      <trkpt lat="45.41231" lon="5.88687">
        <ele>1040.1897</ele>
        <time>2018-11-15 08:29:45,573</time>
      </trkpt>
      <trkpt lat="45.41207" lon="5.88715">
        <ele>1041.0416</ele>
        <time>2018-11-15 08:30:22,583</time>
      </trkpt>
      <trkpt lat="45.41186" lon="5.88745">
        <ele>1039.3136</ele>
        <time>2018-11-15 08:30:59,007</time>
      </trkpt>
      <trkpt lat="45.41172" lon="5.88784">
        <ele>1045.21</ele>
        <time>2018-11-15 08:31:48,006</time>
      </trkpt>
      <trkpt lat="45.41149" lon="5.88811">
        <ele>1055.8109</ele>
        <time>2018-11-15 08:32:42,008</time>
      </trkpt>
      <trkpt lat="45.41118" lon="5.88854">
        <ele>1068.2628</ele>
        <time>2018-11-15 08:33:55,007</time>
      </trkpt>
      <trkpt lat="45.41092" lon="5.8888">
        <ele>1077.6252</ele>
        <time>2018-11-15 08:34:55,021</time>
      </trkpt>
      <trkpt lat="45.41071" lon="5.8891">
        <ele>1080.9309</ele>
        <time>2018-11-15 08:35:47,304</time>
      </trkpt>
      <trkpt lat="45.41051" lon="5.88943">
        <ele>1090.5778</ele>
        <time>2018-11-15 08:36:37,304</time>
      </trkpt>
      <trkpt lat="45.4106" lon="5.88984">
        <ele>1103.8881</ele>
        <time>2018-11-15 08:38:04,311</time>
      </trkpt>
      <trkpt lat="45.41087" lon="5.89002">
        <ele>1117.4143</ele>
        <time>2018-11-15 08:39:20,307</time>
      </trkpt>
      <trkpt lat="45.41112" lon="5.89028">
        <ele>1133.058</ele>
        <time>2018-11-15 08:40:51,300</time>
      </trkpt>
      <trkpt lat="45.4114" lon="5.89047">
        <ele>1150.7013</ele>
        <time>2018-11-15 08:42:20,309</time>
      </trkpt>
      <trkpt lat="45.41163" lon="5.89074">
        <ele>1162.5599</ele>
        <time>2018-11-15 08:43:32,303</time>
      </trkpt>
      <trkpt lat="45.41189" lon="5.89098">
        <ele>1173.9167</ele>
        <time>2018-11-15 08:44:48,311</time>
      </trkpt>
      <trkpt lat="45.41216" lon="5.89114">
        <ele>1199.4224</ele>
        <time>2018-11-15 08:50:26,432</time>
      </trkpt>
      <trkpt lat="45.41246" lon="5.89116">
        <ele>1208.338</ele>
        <time>2018-11-15 08:51:39,431</time>
      </trkpt>
      <trkpt lat="45.41275" lon="5.8913">
        <ele>1215.8892</ele>
        <time>2018-11-15 08:52:43,162</time>
      </trkpt>
      <trkpt lat="45.41303" lon="5.89149">
        <ele>1229.8534</ele>
        <time>2018-11-15 08:53:58,165</time>
      </trkpt>
      <trkpt lat="45.41331" lon="5.89163">
        <ele>1244.7933</ele>
        <time>2018-11-15 08:55:07,182</time>
      </trkpt>
      <trkpt lat="45.4136" lon="5.89174">
        <ele>1255.7363</ele>
        <time>2018-11-15 08:56:19,164</time>
      </trkpt>
      <trkpt lat="45.41391" lon="5.8918">
        <ele>1267.9894</ele>
        <time>2018-11-15 08:57:19,172</time>
      </trkpt>
      <trkpt lat="45.41419" lon="5.89197">
        <ele>1278.4927</ele>
        <time>2018-11-15 08:58:25,176</time>
      </trkpt>
      <trkpt lat="45.41449" lon="5.89207">
        <ele>1288.4938</ele>
        <time>2018-11-15 08:59:16,165</time>
      </trkpt>
      <trkpt lat="45.41477" lon="5.89225">
        <ele>1304.5887</ele>
        <time>2018-11-15 09:02:07,177</time>
      </trkpt>
      <trkpt lat="45.4151" lon="5.89249">
        <ele>1316.5232</ele>
        <time>2018-11-15 09:03:25,162</time>
      </trkpt>
      <trkpt lat="45.41539" lon="5.89234">
        <ele>1335.0784</ele>
        <time>2018-11-15 09:05:08,411</time>
      </trkpt>
      <trkpt lat="45.41566" lon="5.89252">
        <ele>1347.8948</ele>
        <time>2018-11-15 09:06:15,774</time>
      </trkpt>
      <trkpt lat="45.41603" lon="5.89279">
        <ele>1369.0651</ele>
        <time>2018-11-15 09:08:05,948</time>
      </trkpt>
      <trkpt lat="45.41632" lon="5.89293">
        <ele>1388.5745</ele>
        <time>2018-11-15 09:09:41,945</time>
      </trkpt>
      <trkpt lat="45.41655" lon="5.89321">
        <ele>1401.9578</ele>
        <time>2018-11-15 09:11:09,944</time>
      </trkpt>
      <trkpt lat="45.41675" lon="5.89353">
        <ele>1418.9105</ele>
        <time>2018-11-15 09:13:21,943</time>
      </trkpt>
      <trkpt lat="45.41704" lon="5.89368">
        <ele>1434.1624</ele>
        <time>2018-11-15 09:14:36,943</time>
      </trkpt>
      <trkpt lat="45.41721" lon="5.89403">
        <ele>1455.9343</ele>
        <time>2018-11-15 09:16:42,942</time>
      </trkpt>
      <trkpt lat="45.4173" lon="5.89444">
        <ele>1461.9746</ele>
        <time>2018-11-15 09:17:38,950</time>
      </trkpt>
      <trkpt lat="45.41745" lon="5.89482">
        <ele>1466.768</ele>
        <time>2018-11-15 09:18:23,939</time>
      </trkpt>
      <trkpt lat="45.41751" lon="5.89524">
        <ele>1475.5372</ele>
        <time>2018-11-15 09:22:22,887</time>
      </trkpt>
      <trkpt lat="45.41747" lon="5.89567">
        <ele>1482.5945</ele>
        <time>2018-11-15 09:23:14,886</time>
      </trkpt>
      <trkpt lat="45.41734" lon="5.89606">
        <ele>1495.8182</ele>
        <time>2018-11-15 09:24:24,884</time>
      </trkpt>
      <trkpt lat="45.41715" lon="5.89639">
        <ele>1503.2362</ele>
        <time>2018-11-15 09:25:14,885</time>
      </trkpt>
      <trkpt lat="45.41691" lon="5.89666">
        <ele>1511.0125</ele>
        <time>2018-11-15 09:25:59,883</time>
      </trkpt>
      <trkpt lat="45.41673" lon="5.89702">
        <ele>1520.1603</ele>
        <time>2018-11-15 09:26:42,885</time>
      </trkpt>
      <trkpt lat="45.41651" lon="5.89732">
        <ele>1522.0042</ele>
        <time>2018-11-15 09:27:27,886</time>
      </trkpt>
      <trkpt lat="45.41663" lon="5.89772">
        <ele>1534.1123</ele>
        <time>2018-11-15 09:29:11,885</time>
      </trkpt>
      <trkpt lat="45.41648" lon="5.89809">
        <ele>1552.0619</ele>
        <time>2018-11-15 09:30:48,895</time>
      </trkpt>
      <trkpt lat="45.41678" lon="5.8982">
        <ele>1561.1759</ele>
        <time>2018-11-15 09:31:51,882</time>
      </trkpt>
      <trkpt lat="45.41693" lon="5.89856">
        <ele>1585.906</ele>
        <time>2018-11-15 09:34:29,876</time>
      </trkpt>
      <trkpt lat="45.41712" lon="5.89893">
        <ele>1606.1202</ele>
        <time>2018-11-15 09:36:51,876</time>
      </trkpt>
      <trkpt lat="45.41742" lon="5.89889">
        <ele>1630.2213</ele>
        <time>2018-11-15 09:39:39,872</time>
      </trkpt>
      <trkpt lat="45.41767" lon="5.89864">
        <ele>1635.29</ele>
        <time>2018-11-15 09:40:35,865</time>
      </trkpt>
      <trkpt lat="45.41798" lon="5.89868">
        <ele>1646.0303</ele>
        <time>2018-11-15 09:42:37,873</time>
      </trkpt>
      <trkpt lat="45.41829" lon="5.89866">
        <ele>1641.9186</ele>
        <time>2018-11-15 09:43:50,876</time>
      </trkpt>
      <trkpt lat="45.41854" lon="5.89842">
        <ele>1646.7426</ele>
        <time>2018-11-15 09:44:18,886</time>
      </trkpt>
      <trkpt lat="45.41881" lon="5.89861">
        <ele>1650.0432</ele>
        <time>2018-11-15 09:44:55,967</time>
      </trkpt>
      <trkpt lat="45.4191" lon="5.89876">
        <ele>1650.8513</ele>
        <time>2018-11-15 09:45:28,874</time>
      </trkpt>
      <trkpt lat="45.4194" lon="5.89889">
        <ele>1641.7625</ele>
        <time>2018-11-15 09:51:41,880</time>
      </trkpt>
      <trkpt lat="45.41957" lon="5.89924">
        <ele>1649.5114</ele>
        <time>2018-11-15 09:54:02,881</time>
      </trkpt>
      <trkpt lat="45.41961" lon="5.89967">
        <ele>1673.3826</ele>
        <time>2018-11-15 09:56:59,870</time>
      </trkpt>
      <trkpt lat="45.41951" lon="5.90007">
        <ele>1691.9808</ele>
        <time>2018-11-15 09:59:14,882</time>
      </trkpt>
      <trkpt lat="45.41957" lon="5.90049">
        <ele>1721.6215</ele>
        <time>2018-11-15 10:02:45,876</time>
      </trkpt>
      <trkpt lat="45.41935" lon="5.90078">
        <ele>1739.4122</ele>
        <time>2018-11-15 10:04:49,871</time>
      </trkpt>
      <trkpt lat="45.41958" lon="5.90106">
        <ele>1755.749</ele>
        <time>2018-11-15 10:06:21,862</time>
      </trkpt>
      <trkpt lat="45.41992" lon="5.90115">
        <ele>1795.807</ele>
        <time>2018-11-15 10:10:56,866</time>
      </trkpt>
      <trkpt lat="45.41974" lon="5.90154">
        <ele>1794.49</ele>
        <time>2018-11-15 10:11:40,861</time>
      </trkpt>
      <trkpt lat="45.41987" lon="5.90194">
        <ele>1791.1438</ele>
        <time>2018-11-15 10:11:55,854</time>
      </trkpt>
      <trkpt lat="45.41957" lon="5.90139">
        <ele>1775.4956</ele>
        <time>2018-11-15 10:14:25,840</time>
      </trkpt>
      <trkpt lat="45.4196" lon="5.90182">
        <ele>1824.3407</ele>
        <time>2018-11-15 10:19:32,855</time>
      </trkpt>
      <trkpt lat="45.4199" lon="5.9017">
        <ele>1836.9191</ele>
        <time>2018-11-15 10:35:28,871</time>
      </trkpt>
      <trkpt lat="45.41975" lon="5.90207">
        <ele>1847.0988</ele>
        <time>2018-11-15 10:39:00,861</time>
      </trkpt>
      <trkpt lat="45.41997" lon="5.90237">
        <ele>1847.5961</ele>
        <time>2018-11-15 10:49:42,151</time>
      </trkpt>
      <trkpt lat="45.42027" lon="5.9024">
        <ele>1846.423</ele>
        <time>2018-11-15 10:50:17,163</time>
      </trkpt>
      <trkpt lat="45.42057" lon="5.90236">
        <ele>1847.2548</ele>
        <time>2018-11-15 10:50:51,153</time>
      </trkpt>
      <trkpt lat="45.42087" lon="5.90228">
        <ele>1847.6174</ele>
        <time>2018-11-15 10:51:37,155</time>
      </trkpt>
      <trkpt lat="45.42115" lon="5.90245">
        <ele>1847.597</ele>
        <time>2018-11-15 10:52:19,153</time>
      </trkpt>
      <trkpt lat="45.42163" lon="5.90268">
        <ele>1850.2123</ele>
        <time>2018-11-15 10:53:23,164</time>
      </trkpt>
      <trkpt lat="45.42194" lon="5.90274">
        <ele>1852.1902</ele>
        <time>2018-11-15 10:53:57,158</time>
      </trkpt>
      <trkpt lat="45.42221" lon="5.90257">
        <ele>1856.5773</ele>
        <time>2018-11-15 10:54:33,147</time>
      </trkpt>
      <trkpt lat="45.42252" lon="5.90254">
        <ele>1859.5835</ele>
        <time>2018-11-15 10:55:07,146</time>
      </trkpt>
      <trkpt lat="45.42278" lon="5.90278">
        <ele>1860.1082</ele>
        <time>2018-11-15 10:55:48,162</time>
      </trkpt>
      <trkpt lat="45.42307" lon="5.90291">
        <ele>1859.139</ele>
        <time>2018-11-15 10:56:48,150</time>
      </trkpt>
      <trkpt lat="45.4234" lon="5.90309">
        <ele>1859.0007</ele>
        <time>2018-11-15 10:58:20,145</time>
      </trkpt>
      <trkpt lat="45.42369" lon="5.90299">
        <ele>1858.203</ele>
        <time>2018-11-15 10:59:19,161</time>
      </trkpt>
      <trkpt lat="45.42399" lon="5.90301">
        <ele>1858.7699</ele>
        <time>2018-11-15 11:00:00,150</time>
      </trkpt>
      <trkpt lat="45.42427" lon="5.9032">
        <ele>1859.2468</ele>
        <time>2018-11-15 11:00:49,142</time>
      </trkpt>
      <trkpt lat="45.42451" lon="5.90346">
        <ele>1858.0037</ele>
        <time>2018-11-15 11:02:03,155</time>
      </trkpt>
      <trkpt lat="45.42473" lon="5.90376">
        <ele>1857.7385</ele>
        <time>2018-11-15 11:02:48,148</time>
      </trkpt>
      <trkpt lat="45.42503" lon="5.90382">
        <ele>1855.9723</ele>
        <time>2018-11-15 11:03:26,143</time>
      </trkpt>
      <trkpt lat="45.42532" lon="5.90397">
        <ele>1853.2382</ele>
        <time>2018-11-15 11:03:59,143</time>
      </trkpt>
      <trkpt lat="45.42562" lon="5.90406">
        <ele>1848.2007</ele>
        <time>2018-11-15 11:04:45,157</time>
      </trkpt>
      <trkpt lat="45.42592" lon="5.90401">
        <ele>1847.5795</ele>
        <time>2018-11-15 11:05:18,153</time>
      </trkpt>
      <trkpt lat="45.42621" lon="5.90386">
        <ele>1844.8453</ele>
        <time>2018-11-15 11:05:59,154</time>
      </trkpt>
      <trkpt lat="45.42651" lon="5.90388">
        <ele>1843.826</ele>
        <time>2018-11-15 11:06:31,156</time>
      </trkpt>
      <trkpt lat="45.4268" lon="5.904">
        <ele>1843.0815</ele>
        <time>2018-11-15 11:07:02,148</time>
      </trkpt>
      <trkpt lat="45.42718" lon="5.90421">
        <ele>1843.1787</ele>
        <time>2018-11-15 11:07:49,140</time>
      </trkpt>
      <trkpt lat="45.42745" lon="5.9044">
        <ele>1843.4644</ele>
        <time>2018-11-15 11:08:21,143</time>
      </trkpt>
      <trkpt lat="45.42775" lon="5.90449">
        <ele>1843.8245</ele>
        <time>2018-11-15 11:08:55,149</time>
      </trkpt>
      <trkpt lat="45.42804" lon="5.90461">
        <ele>1844.566</ele>
        <time>2018-11-15 11:09:26,150</time>
      </trkpt>
      <trkpt lat="45.42908" lon="5.90493">
        <ele>1846.6757</ele>
        <time>2018-11-15 11:11:15,139</time>
      </trkpt>
      <trkpt lat="45.42932" lon="5.90466">
        <ele>1847.0472</ele>
        <time>2018-11-15 11:11:42,146</time>
      </trkpt>
      <trkpt lat="45.42962" lon="5.90472">
        <ele>1846.6703</ele>
        <time>2018-11-15 11:12:13,138</time>
      </trkpt>
      <trkpt lat="45.43005" lon="5.90477">
        <ele>1843.9802</ele>
        <time>2018-11-15 11:13:05,138</time>
      </trkpt>
      <trkpt lat="45.43037" lon="5.90484">
        <ele>1843.9443</ele>
        <time>2018-11-15 11:13:33,140</time>
      </trkpt>
      <trkpt lat="45.43067" lon="5.90488">
        <ele>1842.0452</ele>
        <time>2018-11-15 11:14:07,136</time>
      </trkpt>
      <trkpt lat="45.43096" lon="5.9048">
        <ele>1841.4438</ele>
        <time>2018-11-15 11:15:30,144</time>
      </trkpt>
      <trkpt lat="45.43133" lon="5.90465">
        <ele>1843.771</ele>
        <time>2018-11-15 11:17:19,141</time>
      </trkpt>
      <trkpt lat="45.43163" lon="5.90458">
        <ele>1849.2881</ele>
        <time>2018-11-15 11:18:38,141</time>
      </trkpt>
      <trkpt lat="45.43191" lon="5.90441">
        <ele>1853.3138</ele>
        <time>2018-11-15 11:19:49,136</time>
      </trkpt>
      <trkpt lat="45.4322" lon="5.90431">
        <ele>1855.6636</ele>
        <time>2018-11-15 11:20:28,136</time>
      </trkpt>
      <trkpt lat="45.43245" lon="5.90408">
        <ele>1861.5989</ele>
        <time>2018-11-15 11:21:39,128</time>
      </trkpt>
      <trkpt lat="45.43219" lon="5.90429">
        <ele>1863.0417</ele>
        <time>2018-11-15 11:29:50,133</time>
      </trkpt>
      <trkpt lat="45.4319" lon="5.90441">
        <ele>1859.3037</ele>
        <time>2018-11-15 11:30:32,117</time>
      </trkpt>
      <trkpt lat="45.43163" lon="5.90459">
        <ele>1857.2727</ele>
        <time>2018-11-15 11:31:03,125</time>
      </trkpt>
      <trkpt lat="45.43133" lon="5.90469">
        <ele>1854.175</ele>
        <time>2018-11-15 11:31:28,132</time>
      </trkpt>
      <trkpt lat="45.43078" lon="5.90495">
        <ele>1846.8291</ele>
        <time>2018-11-15 11:32:30,128</time>
      </trkpt>
      <trkpt lat="45.43053" lon="5.90522">
        <ele>1841.0542</ele>
        <time>2018-11-15 11:33:35,137</time>
      </trkpt>
      <trkpt lat="45.43026" lon="5.90542">
        <ele>1836.492</ele>
        <time>2018-11-15 11:34:07,126</time>
      </trkpt>
      <trkpt lat="45.42998" lon="5.9056">
        <ele>1831.9797</ele>
        <time>2018-11-15 11:34:48,122</time>
      </trkpt>
      <trkpt lat="45.4298" lon="5.90594">
        <ele>1829.4937</ele>
        <time>2018-11-15 11:35:24,126</time>
      </trkpt>
      <trkpt lat="45.42952" lon="5.90611">
        <ele>1826.4865</ele>
        <time>2018-11-15 11:36:28,128</time>
      </trkpt>
      <trkpt lat="45.42932" lon="5.90645">
        <ele>1824.1478</ele>
        <time>2018-11-15 11:37:06,122</time>
      </trkpt>
      <trkpt lat="45.42891" lon="5.90706">
        <ele>1815.8247</ele>
        <time>2018-11-15 11:38:36,113</time>
      </trkpt>
      <trkpt lat="45.42862" lon="5.90718">
        <ele>1811.305</ele>
        <time>2018-11-15 11:39:18,130</time>
      </trkpt>
      <trkpt lat="45.42833" lon="5.90704">
        <ele>1810.5122</ele>
        <time>2018-11-15 11:39:50,115</time>
      </trkpt>
      <trkpt lat="45.42805" lon="5.90684">
        <ele>1810.0731</ele>
        <time>2018-11-15 11:40:15,122</time>
      </trkpt>
      <trkpt lat="45.42745" lon="5.90648">
        <ele>1810.933</ele>
        <time>2018-11-15 11:41:17,126</time>
      </trkpt>
      <trkpt lat="45.42714" lon="5.90646">
        <ele>1811.5298</ele>
        <time>2018-11-15 11:41:43,127</time>
      </trkpt>
      <trkpt lat="45.42686" lon="5.90657">
        <ele>1810.3195</ele>
        <time>2018-11-15 11:42:12,127</time>
      </trkpt>
      <trkpt lat="45.42655" lon="5.90667">
        <ele>1808.9078</ele>
        <time>2018-11-15 11:42:42,126</time>
      </trkpt>
      <trkpt lat="45.42628" lon="5.90685">
        <ele>1806.8461</ele>
        <time>2018-11-15 11:43:07,130</time>
      </trkpt>
      <trkpt lat="45.42589" lon="5.90707">
        <ele>1805.816</ele>
        <time>2018-11-15 11:43:50,117</time>
      </trkpt>
      <trkpt lat="45.4256" lon="5.907">
        <ele>1807.2267</ele>
        <time>2018-11-15 11:44:20,128</time>
      </trkpt>
      <trkpt lat="45.4253" lon="5.90709">
        <ele>1808.0702</ele>
        <time>2018-11-15 11:44:46,122</time>
      </trkpt>
      <trkpt lat="45.42503" lon="5.90731">
        <ele>1807.0542</ele>
        <time>2018-11-15 11:45:12,114</time>
      </trkpt>
      <trkpt lat="45.42474" lon="5.90758">
        <ele>1804.6096</ele>
        <time>2018-11-15 11:45:42,126</time>
      </trkpt>
      <trkpt lat="45.42447" lon="5.90776">
        <ele>1803.3201</ele>
        <time>2018-11-15 11:46:07,117</time>
      </trkpt>
      <trkpt lat="45.4242" lon="5.90798">
        <ele>1801.7257</ele>
        <time>2018-11-15 11:46:33,111</time>
      </trkpt>
      <trkpt lat="45.42394" lon="5.90822">
        <ele>1799.172</ele>
        <time>2018-11-15 11:47:01,118</time>
      </trkpt>
      <trkpt lat="45.42365" lon="5.90838">
        <ele>1795.6162</ele>
        <time>2018-11-15 11:47:41,122</time>
      </trkpt>
      <trkpt lat="45.42336" lon="5.90847">
        <ele>1792.6736</ele>
        <time>2018-11-15 11:48:38,110</time>
      </trkpt>
      <trkpt lat="45.42319" lon="5.90883">
        <ele>1790.2274</ele>
        <time>2018-11-15 11:49:33,115</time>
      </trkpt>
      <trkpt lat="45.4229" lon="5.90892">
        <ele>1786.9421</ele>
        <time>2018-11-15 11:50:10,120</time>
      </trkpt>
      <trkpt lat="45.42285" lon="5.90934">
        <ele>1784.1372</ele>
        <time>2018-11-15 11:51:01,121</time>
      </trkpt>
      <trkpt lat="45.4229" lon="5.90977">
        <ele>1777.1355</ele>
        <time>2018-11-15 11:51:57,108</time>
      </trkpt>
      <trkpt lat="45.42261" lon="5.90991">
        <ele>1766.0854</ele>
        <time>2018-11-15 11:53:01,109</time>
      </trkpt>
      <trkpt lat="45.42231" lon="5.90981">
        <ele>1765.446</ele>
        <time>2018-11-15 11:53:29,113</time>
      </trkpt>
      <trkpt lat="45.42229" lon="5.91024">
        <ele>1755.3042</ele>
        <time>2018-11-15 11:55:04,110</time>
      </trkpt>
      <trkpt lat="45.42248" lon="5.91056">
        <ele>1749.1348</ele>
        <time>2018-11-15 11:55:45,103</time>
      </trkpt>
      <trkpt lat="45.42266" lon="5.91091">
        <ele>1739.7128</ele>
        <time>2018-11-15 11:56:38,123</time>
      </trkpt>
      <trkpt lat="45.42252" lon="5.91129">
        <ele>1726.0303</ele>
        <time>2018-11-15 11:58:00,218</time>
      </trkpt>
      <trkpt lat="45.42228" lon="5.91155">
        <ele>1712.7627</ele>
        <time>2018-11-15 11:59:09,106</time>
      </trkpt>
      <trkpt lat="45.42238" lon="5.91196">
        <ele>1700.1364</ele>
        <time>2018-11-15 12:00:32,101</time>
      </trkpt>
      <trkpt lat="45.42214" lon="5.91222">
        <ele>1690.8904</ele>
        <time>2018-11-15 12:01:22,114</time>
      </trkpt>
      <trkpt lat="45.42188" lon="5.91244">
        <ele>1683.9354</ele>
        <time>2018-11-15 12:01:52,102</time>
      </trkpt>
      <trkpt lat="45.42159" lon="5.91258">
        <ele>1679.4148</ele>
        <time>2018-11-15 12:02:21,109</time>
      </trkpt>
      <trkpt lat="45.42128" lon="5.91271">
        <ele>1674.7058</ele>
        <time>2018-11-15 12:02:56,093</time>
      </trkpt>
      <trkpt lat="45.42093" lon="5.9129">
        <ele>1671.379</ele>
        <time>2018-11-15 12:03:33,105</time>
      </trkpt>
      <trkpt lat="45.42076" lon="5.91326">
        <ele>1667.9757</ele>
        <time>2018-11-15 12:04:03,105</time>
      </trkpt>
      <trkpt lat="45.42069" lon="5.91367">
        <ele>1664.9113</ele>
        <time>2018-11-15 12:04:30,107</time>
      </trkpt>
      <trkpt lat="45.4205" lon="5.91401">
        <ele>1661.0533</ele>
        <time>2018-11-15 12:04:59,113</time>
      </trkpt>
      <trkpt lat="45.4204" lon="5.91443">
        <ele>1658.2012</ele>
        <time>2018-11-15 12:05:32,096</time>
      </trkpt>
      <trkpt lat="45.42049" lon="5.91484">
        <ele>1658.7167</ele>
        <time>2018-11-15 12:06:01,102</time>
      </trkpt>
      <trkpt lat="45.42037" lon="5.91524">
        <ele>1657.145</ele>
        <time>2018-11-15 12:06:26,096</time>
      </trkpt>
      <trkpt lat="45.42031" lon="5.91567">
        <ele>1657.1888</ele>
        <time>2018-11-15 12:06:58,109</time>
      </trkpt>
      <trkpt lat="45.42033" lon="5.9161">
        <ele>1657.8315</ele>
        <time>2018-11-15 12:07:24,098</time>
      </trkpt>
      <trkpt lat="45.42024" lon="5.91651">
        <ele>1658.5717</ele>
        <time>2018-11-15 12:08:10,104</time>
      </trkpt>
      <trkpt lat="45.42018" lon="5.91695">
        <ele>1663.089</ele>
        <time>2018-11-15 12:10:18,105</time>
      </trkpt>
      <trkpt lat="45.42009" lon="5.91746">
        <ele>1669.6721</ele>
        <time>2018-11-15 12:11:20,102</time>
      </trkpt>
      <trkpt lat="45.41984" lon="5.9177">
        <ele>1672.9916</ele>
        <time>2018-11-15 12:12:04,104</time>
      </trkpt>
      <trkpt lat="45.41986" lon="5.91813">
        <ele>1680.9371</ele>
        <time>2018-11-15 12:12:46,100</time>
      </trkpt>
      <trkpt lat="45.41977" lon="5.91854">
        <ele>1685.9952</ele>
        <time>2018-11-15 12:13:30,089</time>
      </trkpt>
      <trkpt lat="45.41983" lon="5.91896">
        <ele>1691.4929</ele>
        <time>2018-11-15 12:14:10,094</time>
      </trkpt>
      <trkpt lat="45.41998" lon="5.91933">
        <ele>1697.3958</ele>
        <time>2018-11-15 12:14:55,099</time>
      </trkpt>
      <trkpt lat="45.41979" lon="5.91967">
        <ele>1704.2826</ele>
        <time>2018-11-15 12:15:45,098</time>
      </trkpt>
      <trkpt lat="45.41956" lon="5.91997">
        <ele>1708.7073</ele>
        <time>2018-11-15 12:16:28,100</time>
      </trkpt>
      <trkpt lat="45.41943" lon="5.92037">
        <ele>1714.3671</ele>
        <time>2018-11-15 12:17:04,093</time>
      </trkpt>
      <trkpt lat="45.41923" lon="5.92069">
        <ele>1716.8275</ele>
        <time>2018-11-15 12:17:38,098</time>
      </trkpt>
      <trkpt lat="45.41907" lon="5.92107">
        <ele>1723.3547</ele>
        <time>2018-11-15 12:18:20,096</time>
      </trkpt>
      <trkpt lat="45.41895" lon="5.92146">
        <ele>1726.9713</ele>
        <time>2018-11-15 12:18:57,097</time>
      </trkpt>
      <trkpt lat="45.4188" lon="5.92186">
        <ele>1733.9376</ele>
        <time>2018-11-15 12:19:37,091</time>
      </trkpt>
      <trkpt lat="45.41863" lon="5.92223">
        <ele>1743.2699</ele>
        <time>2018-11-15 12:20:31,107</time>
      </trkpt>
      <trkpt lat="45.41844" lon="5.92256">
        <ele>1752.1135</ele>
        <time>2018-11-15 12:21:23,089</time>
      </trkpt>
      <trkpt lat="45.41824" lon="5.92288">
        <ele>1759.5714</ele>
        <time>2018-11-15 12:22:13,093</time>
      </trkpt>
      <trkpt lat="45.41807" lon="5.92323">
        <ele>1767.2961</ele>
        <time>2018-11-15 12:23:07,097</time>
      </trkpt>
      <trkpt lat="45.41794" lon="5.92362">
        <ele>1777.9755</ele>
        <time>2018-11-15 12:24:03,098</time>
      </trkpt>
      <trkpt lat="45.41797" lon="5.92405">
        <ele>1783.7261</ele>
        <time>2018-11-15 12:24:43,080</time>
      </trkpt>
      <trkpt lat="45.41802" lon="5.92447">
        <ele>1790.3762</ele>
        <time>2018-11-15 12:25:23,094</time>
      </trkpt>
      <trkpt lat="45.41793" lon="5.92488">
        <ele>1794.6962</ele>
        <time>2018-11-15 12:25:55,087</time>
      </trkpt>
      <trkpt lat="45.41791" lon="5.92531">
        <ele>1800.8744</ele>
        <time>2018-11-15 12:26:34,091</time>
      </trkpt>
      <trkpt lat="45.41783" lon="5.92573">
        <ele>1808.5852</ele>
        <time>2018-11-15 12:27:14,093</time>
      </trkpt>
      <trkpt lat="45.41781" lon="5.92616">
        <ele>1815.6512</ele>
        <time>2018-11-15 12:27:50,076</time>
      </trkpt>
      <trkpt lat="45.41773" lon="5.92658">
        <ele>1820.0311</ele>
        <time>2018-11-15 12:28:25,085</time>
      </trkpt>
      <trkpt lat="45.4177" lon="5.92701">
        <ele>1824.6007</ele>
        <time>2018-11-15 12:29:21,095</time>
      </trkpt>
      <trkpt lat="45.41745" lon="5.92726">
        <ele>1819.6536</ele>
        <time>2018-11-15 13:45:28,041</time>
      </trkpt>
      <trkpt lat="45.41709" lon="5.92757">
        <ele>1809.9216</ele>
        <time>2018-11-15 13:46:45,028</time>
      </trkpt>
      <trkpt lat="45.41681" lon="5.92772">
        <ele>1803.5215</ele>
        <time>2018-11-15 13:47:22,039</time>
      </trkpt>
      <trkpt lat="45.4165" lon="5.9277">
        <ele>1797.9475</ele>
        <time>2018-11-15 13:47:55,035</time>
      </trkpt>
      <trkpt lat="45.41621" lon="5.9276">
        <ele>1792.0347</ele>
        <time>2018-11-15 13:48:30,035</time>
      </trkpt>
      <trkpt lat="45.41591" lon="5.92744">
        <ele>1786.3888</ele>
        <time>2018-11-15 13:49:01,040</time>
      </trkpt>
      <trkpt lat="45.41564" lon="5.92724">
        <ele>1780.9434</ele>
        <time>2018-11-15 13:49:29,020</time>
      </trkpt>
      <trkpt lat="45.41543" lon="5.9269">
        <ele>1775.06</ele>
        <time>2018-11-15 13:50:05,034</time>
      </trkpt>
      <trkpt lat="45.41521" lon="5.92662">
        <ele>1768.0034</ele>
        <time>2018-11-15 13:50:51,024</time>
      </trkpt>
      <trkpt lat="45.41484" lon="5.92609">
        <ele>1755.2124</ele>
        <time>2018-11-15 13:51:57,031</time>
      </trkpt>
      <trkpt lat="45.41448" lon="5.92562">
        <ele>1742.5063</ele>
        <time>2018-11-15 13:52:57,025</time>
      </trkpt>
      <trkpt lat="45.41422" lon="5.92541">
        <ele>1735.2897</ele>
        <time>2018-11-15 13:53:34,030</time>
      </trkpt>
      <trkpt lat="45.41406" lon="5.92504">
        <ele>1730.2258</ele>
        <time>2018-11-15 13:54:06,035</time>
      </trkpt>
      <trkpt lat="45.41382" lon="5.92477">
        <ele>1724.3115</ele>
        <time>2018-11-15 13:54:42,032</time>
      </trkpt>
      <trkpt lat="45.41369" lon="5.92438">
        <ele>1719.2677</ele>
        <time>2018-11-15 13:55:18,038</time>
      </trkpt>
      <trkpt lat="45.41348" lon="5.92408">
        <ele>1712.1757</ele>
        <time>2018-11-15 13:55:58,040</time>
      </trkpt>
      <trkpt lat="45.41323" lon="5.92381">
        <ele>1703.5259</ele>
        <time>2018-11-15 13:56:35,022</time>
      </trkpt>
      <trkpt lat="45.413" lon="5.92351">
        <ele>1699.3961</ele>
        <time>2018-11-15 13:57:03,022</time>
      </trkpt>
      <trkpt lat="45.41286" lon="5.92312">
        <ele>1696.4158</ele>
        <time>2018-11-15 13:57:31,028</time>
      </trkpt>
      <trkpt lat="45.41268" lon="5.92278">
        <ele>1694.5814</ele>
        <time>2018-11-15 13:58:04,019</time>
      </trkpt>
      <trkpt lat="45.41254" lon="5.9224">
        <ele>1691.0889</ele>
        <time>2018-11-15 13:58:42,021</time>
      </trkpt>
      <trkpt lat="45.41243" lon="5.922">
        <ele>1688.1531</ele>
        <time>2018-11-15 13:59:15,018</time>
      </trkpt>
      <trkpt lat="45.41225" lon="5.92164">
        <ele>1679.2361</ele>
        <time>2018-11-15 13:59:50,017</time>
      </trkpt>
      <trkpt lat="45.41203" lon="5.92131">
        <ele>1668.7483</ele>
        <time>2018-11-15 14:00:27,015</time>
      </trkpt>
      <trkpt lat="45.41184" lon="5.92098">
        <ele>1659.0745</ele>
        <time>2018-11-15 14:01:26,021</time>
      </trkpt>
      <trkpt lat="45.41166" lon="5.92061">
        <ele>1651.0365</ele>
        <time>2018-11-15 14:02:03,022</time>
      </trkpt>
      <trkpt lat="45.41152" lon="5.92022">
        <ele>1649.0822</ele>
        <time>2018-11-15 14:02:41,024</time>
      </trkpt>
      <trkpt lat="45.41131" lon="5.91992">
        <ele>1647.3082</ele>
        <time>2018-11-15 14:03:10,029</time>
      </trkpt>
      <trkpt lat="45.41112" lon="5.91958">
        <ele>1644.3956</ele>
        <time>2018-11-15 14:03:50,014</time>
      </trkpt>
      <trkpt lat="45.41087" lon="5.9193">
        <ele>1637.1726</ele>
        <time>2018-11-15 14:04:16,011</time>
      </trkpt>
      <trkpt lat="45.41067" lon="5.91897">
        <ele>1626.2299</ele>
        <time>2018-11-15 14:04:49,022</time>
      </trkpt>
      <trkpt lat="45.41038" lon="5.91856">
        <ele>1612.8533</ele>
        <time>2018-11-15 14:05:41,027</time>
      </trkpt>
      <trkpt lat="45.41014" lon="5.91826">
        <ele>1603.4176</ele>
        <time>2018-11-15 14:06:14,022</time>
      </trkpt>
      <trkpt lat="45.40995" lon="5.91792">
        <ele>1592.5814</ele>
        <time>2018-11-15 14:06:55,013</time>
      </trkpt>
      <trkpt lat="45.40981" lon="5.91754">
        <ele>1586.1044</ele>
        <time>2018-11-15 14:07:36,030</time>
      </trkpt>
      <trkpt lat="45.40962" lon="5.9172">
        <ele>1582.2885</ele>
        <time>2018-11-15 14:09:55,016</time>
      </trkpt>
      <trkpt lat="45.40942" lon="5.91688">
        <ele>1576.2277</ele>
        <time>2018-11-15 14:10:48,024</time>
      </trkpt>
      <trkpt lat="45.40928" lon="5.91648">
        <ele>1574.7874</ele>
        <time>2018-11-15 14:11:24,025</time>
      </trkpt>
      <trkpt lat="45.40905" lon="5.91619">
        <ele>1569.6359</ele>
        <time>2018-11-15 14:12:09,011</time>
      </trkpt>
      <trkpt lat="45.40889" lon="5.91582">
        <ele>1566.1232</ele>
        <time>2018-11-15 14:12:51,016</time>
      </trkpt>
      <trkpt lat="45.40867" lon="5.91553">
        <ele>1559.6985</ele>
        <time>2018-11-15 14:13:38,012</time>
      </trkpt>
      <trkpt lat="45.40849" lon="5.91518">
        <ele>1545.5507</ele>
        <time>2018-11-15 14:14:42,010</time>
      </trkpt>
      <trkpt lat="45.40839" lon="5.91477">
        <ele>1523.3691</ele>
        <time>2018-11-15 14:19:50,003</time>
      </trkpt>
      <trkpt lat="45.40817" lon="5.91448">
        <ele>1515.3143</ele>
        <time>2018-11-15 14:20:58,018</time>
      </trkpt>
      <trkpt lat="45.40803" lon="5.9141">
        <ele>1519.0363</ele>
        <time>2018-11-15 14:21:54,993</time>
      </trkpt>
      <trkpt lat="45.40786" lon="5.91375">
        <ele>1521.317</ele>
        <time>2018-11-15 14:22:37,004</time>
      </trkpt>
      <trkpt lat="45.40756" lon="5.91322">
        <ele>1519.036</ele>
        <time>2018-11-15 14:23:24,992</time>
      </trkpt>
      <trkpt lat="45.40737" lon="5.91283">
        <ele>1513.205</ele>
        <time>2018-11-15 14:24:12,998</time>
      </trkpt>
      <trkpt lat="45.40713" lon="5.91254">
        <ele>1507.6366</ele>
        <time>2018-11-15 14:25:04,997</time>
      </trkpt>
      <trkpt lat="45.40698" lon="5.91217">
        <ele>1500.7206</ele>
        <time>2018-11-15 14:25:43,997</time>
      </trkpt>
      <trkpt lat="45.40674" lon="5.91191">
        <ele>1494.3251</ele>
        <time>2018-11-15 14:26:16,001</time>
      </trkpt>
      <trkpt lat="45.4066" lon="5.91153">
        <ele>1490.401</ele>
        <time>2018-11-15 14:26:54,993</time>
      </trkpt>
      <trkpt lat="45.40647" lon="5.91112">
        <ele>1490.4646</ele>
        <time>2018-11-15 14:27:37,986</time>
      </trkpt>
      <trkpt lat="45.40619" lon="5.91094">
        <ele>1481.6975</ele>
        <time>2018-11-15 14:28:52,993</time>
      </trkpt>
      <trkpt lat="45.40601" lon="5.91059">
        <ele>1485.3451</ele>
        <time>2018-11-15 14:29:30,994</time>
      </trkpt>
      <trkpt lat="45.40577" lon="5.91032">
        <ele>1488.6685</ele>
        <time>2018-11-15 14:30:13,995</time>
      </trkpt>
      <trkpt lat="45.40544" lon="5.91">
        <ele>1463.2509</ele>
        <time>2018-11-15 14:32:06,007</time>
      </trkpt>
      <trkpt lat="45.40522" lon="5.9097">
        <ele>1460.2083</ele>
        <time>2018-11-15 14:32:30,998</time>
      </trkpt>
      <trkpt lat="45.40502" lon="5.90938">
        <ele>1457.6152</ele>
        <time>2018-11-15 14:32:57,003</time>
      </trkpt>
      <trkpt lat="45.40487" lon="5.90901">
        <ele>1453.5237</ele>
        <time>2018-11-15 14:33:23,990</time>
      </trkpt>
      <trkpt lat="45.4047" lon="5.90866">
        <ele>1451.2369</ele>
        <time>2018-11-15 14:33:54,009</time>
      </trkpt>
      <trkpt lat="45.40455" lon="5.90827">
        <ele>1452.0577</ele>
        <time>2018-11-15 14:34:29,997</time>
      </trkpt>
      <trkpt lat="45.40439" lon="5.90789">
        <ele>1451.129</ele>
        <time>2018-11-15 14:35:05,998</time>
      </trkpt>
      <trkpt lat="45.40428" lon="5.90749">
        <ele>1445.4894</ele>
        <time>2018-11-15 14:35:49,997</time>
      </trkpt>
      <trkpt lat="45.4041" lon="5.90695">
        <ele>1435.9833</ele>
        <time>2018-11-15 14:37:32,000</time>
      </trkpt>
      <trkpt lat="45.40402" lon="5.90653">
        <ele>1427.1908</ele>
        <time>2018-11-15 14:38:36,988</time>
      </trkpt>
      <trkpt lat="45.40389" lon="5.90614">
        <ele>1414.1816</ele>
        <time>2018-11-15 14:39:39,993</time>
      </trkpt>
      <trkpt lat="45.40371" lon="5.90579">
        <ele>1402.4069</ele>
        <time>2018-11-15 14:40:35,993</time>
      </trkpt>
      <trkpt lat="45.4035" lon="5.90549">
        <ele>1385.1841</ele>
        <time>2018-11-15 14:42:01,993</time>
      </trkpt>
      <trkpt lat="45.40326" lon="5.90522">
        <ele>1372.0404</ele>
        <time>2018-11-15 14:43:01,999</time>
      </trkpt>
      <trkpt lat="45.40356" lon="5.90515">
        <ele>1356.4899</ele>
        <time>2018-11-15 14:43:59,986</time>
      </trkpt>
      <trkpt lat="45.40365" lon="5.90473">
        <ele>1331.1643</ele>
        <time>2018-11-15 14:45:33,980</time>
      </trkpt>
      <trkpt lat="45.40357" lon="5.9043">
        <ele>1317.3118</ele>
        <time>2018-11-15 14:47:01,002</time>
      </trkpt>
      <trkpt lat="45.40343" lon="5.90392">
        <ele>1295.397</ele>
        <time>2018-11-15 14:49:33,983</time>
      </trkpt>
      <trkpt lat="45.40354" lon="5.90351">
        <ele>1288.1909</ele>
        <time>2018-11-15 14:50:35,998</time>
      </trkpt>
      <trkpt lat="45.40353" lon="5.90308">
        <ele>1282.1542</ele>
        <time>2018-11-15 14:51:25,972</time>
      </trkpt>
      <trkpt lat="45.40322" lon="5.90301">
        <ele>1266.5787</ele>
        <time>2018-11-15 14:52:50,981</time>
      </trkpt>
      <trkpt lat="45.40321" lon="5.90258">
        <ele>1259.3168</ele>
        <time>2018-11-15 14:53:35,975</time>
      </trkpt>
      <trkpt lat="45.40316" lon="5.90214">
        <ele>1244.8308</ele>
        <time>2018-11-15 14:54:24,980</time>
      </trkpt>
      <trkpt lat="45.40318" lon="5.90171">
        <ele>1232.6368</ele>
        <time>2018-11-15 14:55:05,985</time>
      </trkpt>
      <trkpt lat="45.40332" lon="5.90132">
        <ele>1217.0305</ele>
        <time>2018-11-15 14:56:17,979</time>
      </trkpt>
      <trkpt lat="45.40335" lon="5.90088">
        <ele>1206.6998</ele>
        <time>2018-11-15 14:56:47,980</time>
      </trkpt>
      <trkpt lat="45.4034" lon="5.90045">
        <ele>1196.2117</ele>
        <time>2018-11-15 14:57:21,981</time>
      </trkpt>
      <trkpt lat="45.40341" lon="5.90002">
        <ele>1176.1499</ele>
        <time>2018-11-15 14:59:32,976</time>
      </trkpt>
      <trkpt lat="45.40353" lon="5.89963">
        <ele>1167.6749</ele>
        <time>2018-11-15 15:00:16,968</time>
      </trkpt>
      <trkpt lat="45.40382" lon="5.8985">
        <ele>1156.196</ele>
        <time>2018-11-15 15:01:44,986</time>
      </trkpt>
      <trkpt lat="45.40389" lon="5.89807">
        <ele>1155.7278</ele>
        <time>2018-11-15 15:02:06,966</time>
      </trkpt>
      <trkpt lat="45.40398" lon="5.89765">
        <ele>1156.0262</ele>
        <time>2018-11-15 15:02:33,981</time>
      </trkpt>
      <trkpt lat="45.40414" lon="5.89729">
        <ele>1151.6141</ele>
        <time>2018-11-15 15:03:03,965</time>
      </trkpt>
      <trkpt lat="45.40423" lon="5.89686">
        <ele>1147.8307</ele>
        <time>2018-11-15 15:03:28,973</time>
      </trkpt>
      <trkpt lat="45.40444" lon="5.89606">
        <ele>1140.37</ele>
        <time>2018-11-15 15:04:43,976</time>
      </trkpt>
      <trkpt lat="45.40471" lon="5.89585">
        <ele>1139.027</ele>
        <time>2018-11-15 15:05:11,978</time>
      </trkpt>
      <trkpt lat="45.40518" lon="5.89542">
        <ele>1138.6259</ele>
        <time>2018-11-15 15:06:08,969</time>
      </trkpt>
      <trkpt lat="45.40553" lon="5.89515">
        <ele>1131.6512</ele>
        <time>2018-11-15 15:06:58,969</time>
      </trkpt>
      <trkpt lat="45.40583" lon="5.89508">
        <ele>1129.9729</ele>
        <time>2018-11-15 15:07:31,967</time>
      </trkpt>
      <trkpt lat="45.40613" lon="5.89518">
        <ele>1129.5128</ele>
        <time>2018-11-15 15:08:04,966</time>
      </trkpt>
      <trkpt lat="45.40734" lon="5.89548">
        <ele>1124.6381</ele>
        <time>2018-11-15 15:09:59,972</time>
      </trkpt>
      <trkpt lat="45.40764" lon="5.89535">
        <ele>1120.029</ele>
        <time>2018-11-15 15:10:24,963</time>
      </trkpt>
      <trkpt lat="45.40805" lon="5.89514">
        <ele>1114.4862</ele>
        <time>2018-11-15 15:11:02,979</time>
      </trkpt>
      <trkpt lat="45.40831" lon="5.8949">
        <ele>1115.269</ele>
        <time>2018-11-15 15:11:23,973</time>
      </trkpt>
      <trkpt lat="45.40846" lon="5.89452">
        <ele>1115.8881</ele>
        <time>2018-11-15 15:11:54,973</time>
      </trkpt>
      <trkpt lat="45.40848" lon="5.8941">
        <ele>1110.6788</ele>
        <time>2018-11-15 15:12:47,976</time>
      </trkpt>
      <trkpt lat="45.40853" lon="5.89367">
        <ele>1105.6163</ele>
        <time>2018-11-15 15:13:24,976</time>
      </trkpt>
      <trkpt lat="45.40862" lon="5.89324">
        <ele>1104.2789</ele>
        <time>2018-11-15 15:13:48,976</time>
      </trkpt>
      <trkpt lat="45.40878" lon="5.89285">
        <ele>1102.7694</ele>
        <time>2018-11-15 15:14:20,956</time>
      </trkpt>
      <trkpt lat="45.40902" lon="5.89257">
        <ele>1103.8334</ele>
        <time>2018-11-15 15:14:43,953</time>
      </trkpt>
      <trkpt lat="45.40929" lon="5.89237">
        <ele>1109.2534</ele>
        <time>2018-11-15 15:15:14,961</time>
      </trkpt>
      <trkpt lat="45.40967" lon="5.89202">
        <ele>1119.9259</ele>
        <time>2018-11-15 15:16:03,958</time>
      </trkpt>
      <trkpt lat="45.4099" lon="5.89173">
        <ele>1120.6588</ele>
        <time>2018-11-15 15:16:29,959</time>
      </trkpt>
      <trkpt lat="45.41014" lon="5.89147">
        <ele>1122.9319</ele>
        <time>2018-11-15 15:17:01,964</time>
      </trkpt>
      <trkpt lat="45.41031" lon="5.89111">
        <ele>1122.3917</ele>
        <time>2018-11-15 15:18:33,976</time>
      </trkpt>
      <trkpt lat="45.41032" lon="5.89068">
        <ele>1119.1326</ele>
        <time>2018-11-15 15:19:14,977</time>
      </trkpt>
      <trkpt lat="45.41037" lon="5.89024">
        <ele>1115.0072</ele>
        <time>2018-11-15 15:19:48,963</time>
      </trkpt>
      <trkpt lat="45.41047" lon="5.88984">
        <ele>1114.5497</ele>
        <time>2018-11-15 15:20:10,968</time>
      </trkpt>
      <trkpt lat="45.41053" lon="5.8894">
        <ele>1122.374</ele>
        <time>2018-11-15 15:21:12,958</time>
      </trkpt>
      <trkpt lat="45.41069" lon="5.88902">
        <ele>1130.5598</ele>
        <time>2018-11-15 15:21:55,957</time>
      </trkpt>
      <trkpt lat="45.41092" lon="5.88875">
        <ele>1130.5316</ele>
        <time>2018-11-15 15:22:36,970</time>
      </trkpt>
      <trkpt lat="45.41115" lon="5.88846">
        <ele>1128.7332</ele>
        <time>2018-11-15 15:23:18,967</time>
      </trkpt>
      <trkpt lat="45.4114" lon="5.88821">
        <ele>1117.6384</ele>
        <time>2018-11-15 15:24:06,949</time>
      </trkpt>
      <trkpt lat="45.41162" lon="5.88791">
        <ele>1106.0122</ele>
        <time>2018-11-15 15:24:47,956</time>
      </trkpt>
      <trkpt lat="45.41181" lon="5.88757">
        <ele>1096.7399</ele>
        <time>2018-11-15 15:25:27,960</time>
      </trkpt>
      <trkpt lat="45.41197" lon="5.8872">
        <ele>1080.783</ele>
        <time>2018-11-15 15:26:04,963</time>
      </trkpt>
      <trkpt lat="45.41224" lon="5.88697">
        <ele>1069.3704</ele>
        <time>2018-11-15 15:26:35,948</time>
      </trkpt>
      <trkpt lat="45.41246" lon="5.88667">
        <ele>1060.1715</ele>
        <time>2018-11-15 15:27:12,952</time>
      </trkpt>
      <trkpt lat="45.41251" lon="5.88659">
        <ele>1053.5516</ele>
        <time>2018-11-15 15:29:25,952</time>
      </trkpt>
    </trkseg>
  </trk>
</gpx>